Home > Weather > Moose Jaw > Past weeks

Flag for Canada Past Weather in Moose Jaw, Saskatchewan, Canada — Yesterday and Last 2 Weeks

Now
57 °F

Overcast.


Feels Like: 55 °F
Forecast: 49 / 64 °F
Wind: 8 mph from West

Location: Regina Weather Station

Current Time: Aug 25, 2016 at 11:21:41 PM

Latest Report: Aug 25, 2016 at 11:00 PM


Visibility: 15 mi

Pressure: 30.07 "Hg (28.13 "Hg at 560m altitude)

Humidity: 82%

Dew Point: 52 °F

Location of Moose JawLocation

Past Weather in Moose Jaw — Graph

°F

Moose Jaw Temperature Yesterday

Maximum temperature yesterday: 57 °F (at 4:00 PM)
Minimum temperature yesterday: 52 °F (at 10:00 PM)
Average temperature yesterday: 54 °F

High & Low Weather Summary for the Past Weeks

 TemperatureHumidityPressure
High90 °F (Aug 21, 4:00 PM)100% (Aug 11, 3:47 AM)30.20 "Hg (Aug 11, 3:47 AM)
Low41 °F (Aug 25, 5:00 AM)21% (Aug 21, 4:00 PM)29.54 "Hg (Aug 22, 11:00 AM)
Average62 °F72%29.96 "Hg
* Reported Aug 10 10:00 PM — Aug 25 10:00 PM, Moose Jaw, Weather by CustomWeather, © 2016

Note: Actual official high and low records may vary slightly from our data, if they occured in-between our weather recording intervals... More about our weather records

Advertising

Moose Jaw Weather History for the Previous 24 Hours

Scroll right to see more
 ConditionsComfort  
Time TempWeatherWind HumidityBarometerVisibility
10:00 PM
Thu, Aug 25
55 °FPassing clouds.6 mph88%30.09 "Hg15 mi
9:00 PM57 °FPassing clouds.7 mph88%30.09 "Hg15 mi
8:00 PM61 °FPassing clouds.7 mph83%30.10 "Hg15 mi
7:00 PM64 °FBroken clouds.14 mph64%30.09 "Hg15 mi
6:00 PM66 °FBroken clouds.8 mph52%30.09 "Hg15 mi
5:00 PM73 °FBroken clouds.14 mph36%30.08 "Hg15 mi
4:00 PM72 °FPartly sunny.13 mph36%30.09 "Hg15 mi
3:00 PM72 °FScattered clouds.8 mph31%30.11 "Hg15 mi
2:00 PM72 °FBroken clouds.9 mph36%30.12 "Hg15 mi
1:00 PM70 °FScattered clouds.3 mph40%30.14 "Hg15 mi
12:00 PM68 °FPassing clouds.6 mph46%30.15 "Hg15 mi
11:00 AM64 °FScattered clouds.5 mph64%30.17 "Hg15 mi
10:00 AM61 °FScattered clouds.3 mph72%30.19 "Hg15 mi
9:00 AM55 °FScattered clouds.6 mph82%30.19 "Hg15 mi
8:00 AM50 °FScattered clouds.6 mph94%30.19 "Hg15 mi
7:00 AM43 °FScattered clouds.5 mph100%30.19 "Hg12 mi
6:00 AM41 °FFog.3 mph100%30.19 "Hg12 mi
5:00 AM41 °FFog.3 mph100%30.19 "Hg10 mi
4:00 AM43 °FClear.7 mph100%30.19 "Hg10 mi
3:00 AM43 °FClear.9 mph100%30.19 "Hg15 mi
2:00 AM43 °FClear.8 mph100%30.19 "Hg15 mi
1:00 AM45 °FPassing clouds.7 mph100%30.20 "Hg15 mi
12:00 AM48 °FPassing clouds.9 mph94%30.19 "Hg20 mi
11:00 PM
Wed, Aug 24
52 °FPassing clouds.7 mph88%30.20 "Hg15 mi
Weather by CustomWeather, © 2016

See weather overviewHow to use our weather pages